Time,TemperatureF,DewpointF,PressureIn,WindDirection,WindDirectionDegrees,WindSpeedMPH,WindSpeedGustMPH,Humidity,HourlyPrecipIn,Conditions,Clouds,dailyrainin,SoftwareType,DateUTC
2013-05-10 00:01:00,46.0,39.0,-100.00,ESE,115,6.0,7.0,76,0.00,,,-99.99,,2013-05-10 06:01:00,
2013-05-10 00:12:00,46.0,38.0,-100.00,East,100,4.0,8.0,73,0.00,,,-99.99,,2013-05-10 06:12:00,
2013-05-10 00:21:00,46.0,38.0,-100.00,East,90,2.0,5.0,73,0.00,,,-99.99,,2013-05-10 06:21:00,
2013-05-10 00:32:00,46.0,38.0,-100.00,East,100,2.0,6.0,72,0.00,,,-99.99,,2013-05-10 06:32:00,
2013-05-10 00:42:00,46.0,38.0,-100.00,East,80,2.0,4.0,72,0.00,,,-99.99,,2013-05-10 06:42:00,
2013-05-10 00:51:00,45.0,38.0,-100.00,East,80,4.0,5.0,75,0.00,,,-99.99,,2013-05-10 06:51:00,
2013-05-10 01:00:00,44.0,37.0,-100.00,ESE,115,2.0,3.0,77,0.00,,,-99.99,,2013-05-10 07:00:00,
2013-05-10 01:02:00,45.0,38.0,-100.00,NE,55,2.0,5.0,75,0.00,,,-99.99,,2013-05-10 07:02:00,
2013-05-10 01:12:00,45.0,38.0,-100.00,ENE,70,2.0,5.0,75,0.00,,,-99.99,,2013-05-10 07:12:00,
2013-05-10 01:22:00,44.0,37.0,-100.00,ESE,115,2.0,3.0,77,0.00,,,-99.99,,2013-05-10 07:22:00,
2013-05-10 01:31:00,44.0,37.0,-100.00,ESE,115,2.0,3.0,77,0.00,,,-99.99,,2013-05-10 07:31:00,
2013-05-10 01:42:00,44.0,37.0,-100.00,ESE,115,2.0,3.0,77,0.00,,,-99.99,,2013-05-10 07:42:00,
2013-05-10 01:52:00,44.0,37.0,-100.00,ESE,115,2.0,3.0,77,0.00,,,-99.99,,2013-05-10 07:52:00,
2013-05-10 03:52:00,44.0,38.0,-100.00,SSE,160,4.0,7.0,79,0.00,,,-99.99,,2013-05-10 09:52:00,
2013-05-10 04:01:00,42.0,36.0,-100.00,NE,45,2.0,5.0,78,0.00,,,-99.99,,2013-05-10 10:01:00,
2013-05-10 04:03:00,44.0,38.0,-100.00,NE,55,1.0,5.0,79,0.00,,,-99.99,,2013-05-10 10:03:00,
2013-05-10 04:12:00,42.0,37.0,-100.00,East,90,2.0,5.0,79,0.00,,,-99.99,,2013-05-10 10:12:00,
2013-05-10 04:23:00,42.0,36.0,-100.00,NE,45,2.0,5.0,78,0.00,,,-99.99,,2013-05-10 10:23:00,
2013-05-10 04:32:00,42.0,36.0,-100.00,NE,45,2.0,5.0,78,0.00,,,-99.99,,2013-05-10 10:32:00,
2013-05-10 04:42:00,42.0,36.0,-100.00,NE,45,2.0,5.0,78,0.00,,,-99.99,,2013-05-10 10:42:00,
2013-05-10 04:52:00,42.0,36.0,-100.00,NE,45,2.0,5.0,78,0.00,,,-99.99,,2013-05-10 10:52:00,
2013-05-10 05:42:00,42.0,38.0,-100.00,SE,125,1.0,2.0,83,0.00,,,-99.99,,2013-05-10 11:42:00,
2013-05-10 05:52:00,43.0,38.0,-100.00,ESE,110,1.0,2.0,83,0.00,,,-99.99,,2013-05-10 11:52:00,
2013-05-10 06:01:00,43.0,38.0,-100.00,East,100,2.0,4.0,82,0.00,,,-99.99,,2013-05-10 12:01:00,
2013-05-10 06:12:00,44.0,38.0,-100.00,East,100,0.0,4.0,79,0.00,,,-99.99,,2013-05-10 12:12:00,
2013-05-10 06:21:00,44.0,38.0,-100.00,NNW,330,1.0,3.0,79,0.00,,,-99.99,,2013-05-10 12:21:00,
2013-05-10 06:32:00,43.0,38.0,-100.00,North,0,1.0,3.0,80,0.00,,,-99.99,,2013-05-10 12:32:00,
2013-05-10 06:42:00,43.0,38.0,-100.00,North,5,0.0,2.0,81,0.00,,,-99.99,,2013-05-10 12:42:00,
2013-05-10 06:51:00,43.0,38.0,-100.00,NE,45,0.0,2.0,81,0.00,,,-99.99,,2013-05-10 12:51:00,
2013-05-10 07:01:00,44.0,38.0,-100.00,ENE,75,1.0,2.0,81,0.00,,,-99.99,,2013-05-10 13:01:00,
2013-05-10 07:11:00,45.0,39.0,-100.00,East,80,0.0,3.0,79,0.00,,,-99.99,,2013-05-10 13:11:00,
2013-05-10 07:21:00,45.0,39.0,-100.00,ESE,120,2.0,3.0,77,0.00,,,-99.99,,2013-05-10 13:21:00,
2013-05-10 07:32:00,46.0,39.0,-100.00,SSW,210,0.0,4.0,75,0.00,,,-99.99,,2013-05-10 13:32:00,
2013-05-10 07:41:00,49.0,40.0,-100.00,South,175,0.0,1.0,70,0.00,,,-99.99,,2013-05-10 13:41:00,
2013-05-10 07:52:00,50.0,40.0,-100.00,NNW,330,0.0,1.0,67,0.00,,,-99.99,,2013-05-10 13:52:00,
2013-05-10 08:02:00,52.0,40.0,-100.00,West,270,1.0,3.0,63,0.00,,,-99.99,,2013-05-10 14:02:00,
2013-05-10 08:11:00,53.0,40.0,-100.00,WNW,295,2.0,3.0,60,0.00,,,-99.99,,2013-05-10 14:11:00,
2013-05-10 08:21:00,52.0,40.0,-100.00,West,275,2.0,4.0,62,0.00,,,-99.99,,2013-05-10 14:21:00,
2013-05-10 08:32:00,53.0,41.0,-100.00,NW,315,4.0,5.0,63,0.00,,,-99.99,,2013-05-10 14:32:00,
2013-05-10 08:41:00,54.0,42.0,-100.00,North,350,2.0,4.0,64,0.00,,,-99.99,,2013-05-10 14:41:00,
2013-05-10 08:51:00,54.0,42.0,-100.00,WSW,245,4.0,6.0,62,0.00,,,-99.99,,2013-05-10 14:51:00,
2013-05-10 09:01:00,55.0,42.0,-100.00,North,5,3.0,5.0,60,0.00,,,-99.99,,2013-05-10 15:01:00,
2013-05-10 09:20:00,-999.0,-99.9,-100.00,North,10,4.0,6.0,61,0.00,,,-99.99,,2013-05-10 15:20:00,
2013-05-10 09:32:00,57.0,42.0,-100.00,SSW,195,2.0,5.0,57,0.00,,,-99.99,,2013-05-10 15:32:00,
2013-05-10 09:42:00,58.0,43.0,-100.00,SW,215,1.0,7.0,57,0.00,,,-99.99,,2013-05-10 15:42:00,
2013-05-10 09:52:00,58.0,43.0,-100.00,SW,215,1.0,7.0,57,0.00,,,-99.99,,2013-05-10 15:52:00,
2013-05-10 10:02:00,58.0,42.0,-100.00,West,260,1.0,6.0,55,0.00,,,-99.99,,2013-05-10 16:02:00,
2013-05-10 10:12:00,60.0,43.0,-100.00,West,270,4.0,7.0,53,0.00,,,-99.99,,2013-05-10 16:12:00,
2013-05-10 10:23:00,59.0,42.0,-100.00,NW,325,3.0,6.0,53,0.00,,,-99.99,,2013-05-10 16:23:00,
2013-05-10 10:32:00,58.0,40.0,-100.00,WNW,295,6.0,9.0,50,0.00,,,-99.99,,2013-05-10 16:32:00,
2013-05-10 10:42:00,60.0,41.0,-100.00,WNW,300,1.0,5.0,49,0.00,,,-99.99,,2013-05-10 16:42:00,
2013-05-10 10:52:00,60.0,41.0,-100.00,West,270,6.0,9.0,47,0.00,,,-99.99,,2013-05-10 16:52:00,
2013-05-10 11:02:00,60.0,40.0,-100.00,SW,215,5.0,10.0,48,0.00,,,-99.99,,2013-05-10 17:02:00,
2013-05-10 11:12:00,61.0,40.0,-100.00,SW,230,7.0,13.0,46,0.00,,,-99.99,,2013-05-10 17:12:00,
2013-05-10 11:21:00,61.0,40.0,-100.00,SW,230,7.0,13.0,46,0.00,,,-99.99,,2013-05-10 17:21:00,
2013-05-10 11:32:00,60.0,40.0,-100.00,West,260,2.0,10.0,46,0.00,,,-99.99,,2013-05-10 17:32:00,
2013-05-10 11:42:00,61.0,40.0,-100.00,NNW,335,3.0,10.0,46,0.00,,,-99.99,,2013-05-10 17:42:00,
2013-05-10 11:52:00,61.0,40.0,-100.00,North,350,1.0,7.0,46,0.00,,,-99.99,,2013-05-10 17:52:00,
2013-05-10 12:10:00,-999.0,-99.9,-100.00,WSW,250,6.0,9.0,46,0.00,,,-99.99,,2013-05-10 18:10:00,
2013-05-10 12:21:00,62.0,42.0,-100.00,WSW,240,7.0,12.0,47,0.00,,,-99.99,,2013-05-10 18:21:00,
2013-05-10 12:34:00,62.0,42.0,-100.00,West,265,9.0,12.0,46,0.00,,,-99.99,,2013-05-10 18:34:00,
2013-05-10 12:43:00,61.0,41.0,-100.00,South,170,7.0,11.0,47,0.00,,,-99.99,,2013-05-10 18:43:00,
2013-05-10 12:54:00,60.0,41.0,-100.00,South,185,8.0,22.0,47,0.00,,,-99.99,,2013-05-10 18:54:00,
2013-05-10 13:02:00,58.0,39.0,-100.00,SE,130,3.0,19.0,47,0.00,,,-99.99,,2013-05-10 19:02:00,
2013-05-10 13:11:00,58.0,40.0,-100.00,SE,125,7.0,13.0,50,0.00,,,-99.99,,2013-05-10 19:11:00,
2013-05-10 13:21:00,59.0,40.0,-100.00,East,90,6.0,12.0,49,0.00,,,-99.99,,2013-05-10 19:21:00,
2013-05-10 13:32:00,60.0,39.0,-100.00,East,80,10.0,17.0,45,0.00,,,-99.99,,2013-05-10 19:32:00,
2013-05-10 13:42:00,60.0,38.0,-100.00,ESE,105,6.0,16.0,43,0.00,,,-99.99,,2013-05-10 19:42:00,
2013-05-10 13:52:00,59.0,38.0,-100.00,SSE,155,4.0,8.0,46,0.00,,,-99.99,,2013-05-10 19:52:00,
2013-05-10 14:01:00,59.0,38.0,-100.00,ESE,105,7.0,12.0,45,0.00,,,-99.99,,2013-05-10 20:01:00,
2013-05-10 14:12:00,60.0,39.0,-100.00,East,80,4.0,8.0,44,0.00,,,-99.99,,2013-05-10 20:12:00,
2013-05-10 14:21:00,63.0,40.0,-100.00,NE,55,3.0,8.0,43,0.00,,,-99.99,,2013-05-10 20:21:00,
2013-05-10 14:32:00,61.0,39.0,-100.00,SE,140,7.0,12.0,42,0.00,,,-99.99,,2013-05-10 20:32:00,
2013-05-10 14:41:00,61.0,38.0,-100.00,ESE,105,3.0,11.0,42,0.00,,,-99.99,,2013-05-10 20:41:00,
2013-05-10 14:52:00,61.0,38.0,-100.00,East,90,4.0,10.0,42,0.00,,,-99.99,,2013-05-10 20:52:00,
2013-05-10 15:02:00,61.0,38.0,-100.00,WSW,245,0.0,7.0,42,0.00,,,-99.99,,2013-05-10 21:02:00,
2013-05-10 15:11:00,61.0,38.0,-100.00,NE,35,3.0,6.0,42,0.00,,,-99.99,,2013-05-10 21:11:00,
2013-05-10 15:24:00,62.0,39.0,-100.00,SSE,160,4.0,6.0,42,0.00,,,-99.99,,2013-05-10 21:24:00,
2013-05-10 15:32:00,63.0,39.0,-100.00,NE,55,4.0,5.0,41,0.00,,,-99.99,,2013-05-10 21:32:00,
2013-05-10 15:43:00,64.0,39.0,-100.00,NNW,335,4.0,7.0,39,0.00,,,-99.99,,2013-05-10 21:43:00,
2013-05-10 15:52:00,64.0,39.0,-100.00,WNW,300,7.0,9.0,39,0.00,,,-99.99,,2013-05-10 21:52:00,
2013-05-10 16:02:00,64.0,39.0,-100.00,WNW,300,7.0,9.0,39,0.00,,,-99.99,,2013-05-10 22:02:00,
2013-05-10 16:13:00,63.0,38.0,-100.00,NNW,345,4.0,9.0,39,0.00,,,-99.99,,2013-05-10 22:13:00,
2013-05-10 16:22:00,62.0,37.0,-100.00,NNW,335,5.0,7.0,39,0.00,,,-99.99,,2013-05-10 22:22:00,
2013-05-10 16:32:00,63.0,38.0,-100.00,NW,325,0.0,8.0,39,0.00,,,-99.99,,2013-05-10 22:32:00,
2013-05-10 16:42:00,66.0,39.0,-100.00,NE,40,1.0,4.0,37,0.00,,,-99.99,,2013-05-10 22:42:00,
2013-05-10 16:52:00,67.0,39.0,-100.00,WNW,295,1.0,4.0,35,0.00,,,-99.99,,2013-05-10 22:52:00,
2013-05-10 17:02:00,67.0,39.0,-100.00,SSW,205,6.0,8.0,35,0.00,,,-99.99,,2013-05-10 23:02:00,
2013-05-10 17:12:00,66.0,38.0,-100.00,SSE,165,3.0,7.0,34,0.00,,,-99.99,,2013-05-10 23:12:00,
2013-05-10 17:22:00,67.0,38.0,-100.00,SSE,165,1.0,7.0,34,0.00,,,-99.99,,2013-05-10 23:22:00,
2013-05-10 17:32:00,67.0,38.0,-100.00,NNE,15,1.0,4.0,34,0.00,,,-99.99,,2013-05-10 23:32:00,
2013-05-10 17:42:00,67.0,37.0,-100.00,SSW,210,0.0,7.0,33,0.00,,,-99.99,,2013-05-10 23:42:00,
2013-05-10 17:52:00,65.0,36.0,-100.00,South,180,3.0,11.0,33,0.00,,,-99.99,,2013-05-10 23:52:00,
2013-05-10 18:02:00,63.0,37.0,-100.00,SE,135,7.0,12.0,37,0.00,,,-99.99,,2013-05-11 00:02:00,
2013-05-10 18:11:00,62.0,38.0,-100.00,ESE,110,8.0,15.0,39,0.00,,,-99.99,,2013-05-11 00:11:00,
2013-05-10 18:21:00,63.0,38.0,-100.00,SE,130,6.0,14.0,39,0.00,,,-99.99,,2013-05-11 00:21:00,
2013-05-10 18:32:00,63.0,38.0,-100.00,ENE,70,6.0,11.0,39,0.00,,,-99.99,,2013-05-11 00:32:00,
2013-05-10 18:42:00,63.0,38.0,-100.00,SE,125,6.0,10.0,39,0.00,,,-99.99,,2013-05-11 00:42:00,
2013-05-10 18:51:00,64.0,39.0,-100.00,ESE,105,5.0,9.0,40,0.00,,,-99.99,,2013-05-11 00:51:00,
2013-05-10 19:01:00,64.0,39.0,-100.00,SE,145,5.0,7.0,39,0.00,,,-99.99,,2013-05-11 01:01:00,
2013-05-10 19:11:00,64.0,39.0,-100.00,ESE,115,4.0,10.0,38,0.00,,,-99.99,,2013-05-11 01:11:00,
2013-05-10 19:21:00,64.0,38.0,-100.00,SW,235,4.0,6.0,38,0.00,,,-99.99,,2013-05-11 01:21:00,
2013-05-10 19:32:00,63.0,37.0,-100.00,SSW,205,5.0,9.0,38,0.00,,,-99.99,,2013-05-11 01:32:00,
2013-05-10 19:42:00,62.0,37.0,-100.00,South,175,5.0,9.0,38,0.00,,,-99.99,,2013-05-11 01:42:00,
2013-05-10 19:52:00,62.0,38.0,-100.00,ESE,105,5.0,9.0,40,0.00,,,-99.99,,2013-05-11 01:52:00,
2013-05-10 20:02:00,62.0,38.0,-100.00,ESE,110,6.0,12.0,40,0.00,,,-99.99,,2013-05-11 02:02:00,
2013-05-10 20:11:00,61.0,38.0,-100.00,ESE,120,9.0,12.0,42,0.00,,,-99.99,,2013-05-11 02:11:00,
2013-05-10 20:21:00,60.0,38.0,-100.00,ESE,110,7.0,11.0,43,0.00,,,-99.99,,2013-05-11 02:21:00,
2013-05-10 20:32:00,60.0,37.0,-100.00,ENE,75,6.0,12.0,43,0.00,,,-99.99,,2013-05-11 02:32:00,
2013-05-10 20:42:00,59.0,37.0,-100.00,ESE,105,9.0,12.0,42,0.00,,,-99.99,,2013-05-11 02:42:00,
2013-05-10 20:51:00,59.0,37.0,-100.00,ESE,105,6.0,10.0,43,0.00,,,-99.99,,2013-05-11 02:51:00,
2013-05-10 21:01:00,58.0,36.0,-100.00,ESE,105,4.0,9.0,43,0.00,,,-99.99,,2013-05-11 03:01:00,
2013-05-10 21:11:00,58.0,37.0,-100.00,ESE,110,6.0,12.0,45,0.00,,,-99.99,,2013-05-11 03:11:00,
2013-05-10 21:21:00,58.0,37.0,-100.00,ESE,110,6.0,9.0,45,0.00,,,-99.99,,2013-05-11 03:21:00,
2013-05-10 21:33:00,58.0,37.0,-100.00,ESE,110,9.0,13.0,44,0.00,,,-99.99,,2013-05-11 03:33:00,
2013-05-10 21:42:00,58.0,36.0,-100.00,East,95,6.0,13.0,44,0.00,,,-99.99,,2013-05-11 03:42:00,
2013-05-10 21:53:00,58.0,36.0,-100.00,SE,130,4.0,16.0,43,0.00,,,-99.99,,2013-05-11 03:53:00,
2013-05-10 22:02:00,58.0,36.0,-100.00,East,95,8.0,13.0,43,0.00,,,-99.99,,2013-05-11 04:02:00,
2013-05-10 22:12:00,59.0,36.0,-100.00,East,100,8.0,14.0,42,0.00,,,-99.99,,2013-05-11 04:12:00,
2013-05-10 22:23:00,59.0,36.0,-100.00,ESE,110,7.0,11.0,42,0.00,,,-99.99,,2013-05-11 04:23:00,
2013-05-10 22:33:00,58.0,36.0,-100.00,ESE,120,6.0,10.0,42,0.00,,,-99.99,,2013-05-11 04:33:00,
2013-05-10 22:43:00,58.0,35.0,-100.00,ESE,115,8.0,12.0,43,0.00,,,-99.99,,2013-05-11 04:43:00,
2013-05-10 22:52:00,57.0,35.0,-100.00,ESE,105,7.0,11.0,44,0.00,,,-99.99,,2013-05-11 04:52:00,
2013-05-10 23:02:00,57.0,35.0,-100.00,East,95,6.0,14.0,43,0.00,,,-99.99,,2013-05-11 05:02:00,
2013-05-10 23:12:00,57.0,35.0,-100.00,ESE,115,6.0,11.0,43,0.00,,,-99.99,,2013-05-11 05:12:00,
2013-05-10 23:21:00,56.0,35.0,-100.00,East,90,6.0,11.0,44,0.00,,,-99.99,,2013-05-11 05:21:00,
2013-05-10 23:32:00,56.0,35.0,-100.00,ESE,105,6.0,9.0,45,0.00,,,-99.99,,2013-05-11 05:32:00,
2013-05-10 23:42:00,55.0,35.0,-100.00,ESE,115,8.0,11.0,45,0.00,,,-99.99,,2013-05-11 05:42:00,
2013-05-10 23:52:00,55.0,35.0,-100.00,ESE,115,6.0,9.0,45,0.00,,,-99.99,,2013-05-11 05:52:00,